This is the latest recevied weather packets stored in our database for station/object DG9BJA-13. If no packets are shown the sender has not sent any weather packets the latest 1 day(s).
| Time | Temp. | Humidity | Pressure | Rain* | Wind** | Luminosity | Snow |
|---|---|---|---|---|---|---|---|
| 1778061977 | 7.78° C | 95% | 1007.7 hPa | 1.27 mm | - | 67 W/m² | - |
| 1778061377 | 7.78° C | 95% | 1007.7 hPa | 0.76 mm | - | 72 W/m² | - |
| 1778060777 | 7.22° C | 95% | 1007.7 hPa | 0.76 mm | - | 83 W/m² | - |
| 1778060177 | 7.22° C | 95% | 1007.5 hPa | 0.76 mm | - | 98 W/m² | - |
| 1778058977 | 6.67° C | 95% | 1007.4 hPa | 1.02 mm | - | 97 W/m² | - |
| 1778058377 | 6.67° C | 95% | 1007.4 hPa | 1.02 mm | - | 84 W/m² | - |
| 1778057777 | 6.67° C | 95% | 1007.4 hPa | 1.02 mm | - | 77 W/m² | - |
| 1778057177 | 6.11° C | 95% | 1007.4 hPa | 1.02 mm | - | 62 W/m² | - |
| 1778056577 | 6.11° C | 95% | 1007.4 hPa | 1.02 mm | - | 70 W/m² | - |
| 1778054777 | 6.11° C | 95% | 1007.4 hPa | 1.02 mm | - | 74 W/m² | - |
| 1778054177 | 6.11° C | 95% | 1007.4 hPa | 1.52 mm | - | 62 W/m² | - |
| 1778053577 | 6.11° C | 95% | 1007.4 hPa | 1.52 mm | - | 67 W/m² | - |
| 1778051777 | 6.11° C | 95% | 1007.3 hPa | 1.78 mm | - | 60 W/m² | - |
| 1778051177 | 6.11° C | 94% | 1007.3 hPa | 1.78 mm | - | 63 W/m² | - |
| 1778050576 | 6.11° C | 94% | 1007.3 hPa | 1.27 mm | - | 58 W/m² | - |
| 1778049976 | 5.56° C | 94% | 1007.3 hPa | 1.27 mm | - | 54 W/m² | - |
| 1778049376 | 5.56° C | 94% | 1007.2 hPa | 1.27 mm | - | 44 W/m² | - |
| 1778048776 | 5.56° C | 94% | 1007 hPa | 1.27 mm | - | 42 W/m² | - |
| 1778047576 | 6.11° C | 94% | 1006.9 hPa | 1.02 mm | - | 35 W/m² | - |
| 1778046976 | 6.11° C | 94% | 1006.9 hPa | 1.27 mm | - | 37 W/m² | - |
| 1778046376 | 6.11° C | 94% | 1006.9 hPa | 1.27 mm | - | 37 W/m² | - |
| 1778045776 | 6.11° C | 94% | 1006.9 hPa | 1.52 mm | - | 33 W/m² | - |
| 1778045176 | 6.11° C | 94% | 1006.8 hPa | 1.52 mm | - | 30 W/m² | - |
| 1778044576 | 6.11° C | 94% | 1006.8 hPa | 1.78 mm | - | 25 W/m² | - |
| 1778043976 | 6.67° C | 94% | 1006.9 hPa | 1.78 mm | - | 19 W/m² | - |
* Rain latest hour (hover to see other rain measurements)
** Current wind speed in m/s (hover to see current wind gust speed)